UFO 8 (USA 138)

Last updated on Sept. 26, 2020, 5:40 a.m. UTC

1 25258U 98016A   20269.65688822 -.00000039  00000-0  00000-0 0  9993
2 25258   8.7685  32.3667 0003286 140.7880 240.0518  1.00277125 82894
UTC
Height (km)
Latitude
Longitude
Inclination
Orbital Period
UTC large
Height (km)
Speed (km/s)
/
Latitude / Longitude
Inclination (degrees)
Orbital Period (minutes)
Azimuth
Elevation
Range (km)
Doppler Factor
iOS Compass Heading
iOS Angle

Next 30 passes for location: Hong Kong

Rise time Rise Azimuth (degrees) Set time Set Azimuth (degrees) Duration Max altitude (degrees)

No matching passes for this satellites